Regional Weather Roundup
Issued by NWS

Home | Current Version | Previous Version | Graphics & Text | Print | Product List | Glossary On
Versions: 1 2 3 4 5 6 7 8 9 10 11 12 13 14 15 16 17 18 19 20 21 22 23 24 25 26 27 28 29 30 31 32 33 34 35 36 37 38 39 40 41 42 43 44 45 46 47 48 49 50
000
ASUS43 KDMX 291008
RWRIA

WEATHER ROUNDUP FOR IOWA
NATIONAL WEATHER SERVICE DES MOINES IA
500 AM CDT FRI APR 29 2016

NOTE: "FAIR" INDICATES FEW OR NO CLOUDS BELOW 12,000 FEET WITH NO
SIGNIFICANT WEATHER AND/OR OBSTRUCTIONS TO VISIBILITY.

* - THESE STATIONS ARE NOT NWS STATIONS...THUS NOT UNDER NWS
QUALITY CONTROL.  THEY ALSO DO NOT REPORT WEATHER SUCH
AS PRECIPITATION OR FOG.

IAZ001>003-012>014-020>022-031>034-043>046-291100-
   NORTHWEST IOWA

CITY           SKY/WX    TMP DP  RH WIND       PRES   REMARKS
CARROLL *      CLOUDY    43  41  93 N7        30.11F
CHEROKEE *     CLOUDY    41  41 100 N3        30.13S
DENISON *      CLOUDY    43  41  93 CALM      30.11R
LE MARS *      CLOUDY    41  39  93 CALM      30.15R
ORANGE CITY *  CLOUDY    39  37  93 CALM      30.12F
SHELDON *      CLOUDY    39  39 100 N3        30.11S
SIOUX CITY     CLOUDY    43  40  89 CALM      30.14R
SPENCER        CLOUDY    40  37  89 NE3       30.13R
STORM LAKE *   CLOUDY    41  39  93 N5        30.12S
$$

IAZ055>058-069>071-079>083-090>094-291100-
   SOUTHWEST IOWA

CITY           SKY/WX    TMP DP  RH WIND       PRES   REMARKS
ATLANTIC *     CLOUDY    45  43  93 N8        30.11F
AUDUBON *      CLOUDY    43  39  87 NE3       30.13R
CLARINDA *       N/A    N/A N/A N/A MISG        N/A
COUNCIL BLFS * CLOUDY    43  43 100 N5        30.11F
CRESTON *      CLOUDY    45  41  87 CALM      30.12R
HARLAN  *      CLOUDY    43  43 100 NE5       30.16R
LAMONI         CLOUDY    46  42  86 NW6       30.10S
RED OAK *      CLOUDY    45  43  93 N5        30.11F
SHENANDOAH *   CLOUDY    46  43  87 N7        30.11F
$$

IAZ047>049-059>061-072>074-084-291100-
   CENTRAL IOWA

CITY           SKY/WX    TMP DP  RH WIND       PRES   REMARKS
AMES           CLOUDY    44  42  93 N8        30.12R
ANKENY *       CLOUDY    46  45  93 N7        30.11F
BOONE *        CLOUDY    43  43 100 N8        30.11S FOG
CHARITON *     CLOUDY    46  45  93 NW7       30.10S
DES MOINES     CLOUDY    47  42  83 N6        30.10F
GRINNELL*      CLOUDY    45  43  93 N6        30.11S FOG
KNOXVILLE *    CLOUDY    46  45  93 NW7       30.09F
MARSHALLTOWN   CLOUDY    44  42  93 N6        30.12R
NEWTON *       CLOUDY    46  46 100 N6        30.10F
PELLA *        CLOUDY    48  46  93 N3        30.11F
$$

IAZ004>006-015-016-023>025-035-036-291100-
   NORTH CENTRAL IOWA

CITY           SKY/WX    TMP DP  RH WIND       PRES   REMARKS
ALGONA *       CLOUDY    41  39  93 N6        30.12S
CLARION *      CLOUDY    41  41 100 N6        30.11S
ESTHERVILLE    CLOUDY    39  38  96 N6        30.12S WCI  35
FORT DODGE *   CLOUDY    41  36  81 CALM      30.12S
MASON CITY     CLOUDY    41  40  96 N8        30.13S
FOREST CITY *  CLOUDY    39  39 100 N8        30.12S FOG     WCI  34
WEBSTER CITY * CLOUDY    43  43 100 N6        30.10S FOG
IOWA FALLS *   CLOUDY    43  41  93 CALM      30.12S
$$

IAZ007>011-017>019-026>030-037>042-050>054-066-291100-
   NORTHEAST IOWA

CITY           SKY/WX    TMP DP  RH WIND       PRES   REMARKS
CEDAR RAPIDS   CLOUDY    43  42  97 N3        30.10R
CHARLES CITY * CLOUDY    41  41 100 N7        30.12S
CLINTON *      CLOUDY    42  41  96 N7        30.09R
DECORAH *      CLOUDY    39  39 100 N5        30.11S
DUBUQUE        CLOUDY    40  39  97 N7        30.08R
MONTICELLO *   CLOUDY    43  39  87 N5        30.09R
OELWEIN *      CLOUDY    41  41 100 N8        30.11R
WATERLOO       CLOUDY    42  39  89 N3        30.11R
$$

IAZ064-065-067-068-078-291100-
   EAST CENTRAL IOWA

CITY           SKY/WX    TMP DP  RH WIND       PRES   REMARKS
DAVENPORT      CLOUDY    43  42  97 NE5       30.09R FOG
IOWA CITY      CLOUDY    45  42  89 NW5       30.13R
MT. PLEASANT * CLOUDY    50  50 100 N10       30.09S FOG
MUSCATINE *    CLOUDY    46  45  93 N5        30.12R FOG
QUAD CITIES    CLOUDY    46  42  86 N6        30.09R FOG
$$

IAZ062-063-075>077-085>089-095>099-291100-
   SOUTHEAST IOWA

CITY           SKY/WX    TMP DP  RH WIND       PRES   REMARKS
BURLINGTON     CLOUDY    49  49 100 N12       30.07R FOG
FAIRFIELD *    CLOUDY    48  45  87 N9        30.10S
FORT MADISON * CLOUDY    48  48 100 N13       30.08S FOG
KEOKUK *       CLOUDY    52  50  93 NW8       30.07S
OSKALOOSA *    CLOUDY    46  45  93 N6        30.10F FOG
OTTUMWA        CLOUDY    47  46  97 N6        30.09S
WASHINGTON *   CLOUDY    46  46 100 N7        30.12R FOG
$$

ABBREVIATIONS USED IN REMARKS
   TC - TEMPERATURES IN CELSIUS
  WCI - WIND CHILL INDEX
   HX - HEAT INDEX
  VSB - VISIBILITY
$$




USA.gov is the U.S. government's official web portal to all federal, state and local government web resources and services.